Regional Weather Roundup
Issued by NWS

Home | Current Version | Previous Version | Text Only | Print | Product List | Glossary Off
Versions: 1 2 3 4 5 6 7 8 9 10 11 12 13 14 15 16 17 18 19 20 21 22 23 24 25 26 27 28 29 30 31 32 33 34 35 36 37 38 39 40 41 42 43 44 45 46 47 48 49 50

740
ASUS43 KOAX 140402
RWRNE

WEATHER ROUNDUP FOR NEBRASKA
NATIONAL WEATHER SERVICE OMAHA NE
1000 PM CST SAT FEB 13 2016

NOTES: SATELLITE DATA IS BEING USED TO AUGMENT CLOUD COVER ABOVE
       12000 FEET.
       "FAIR" INDICATES FEW OR NO CLOUDS BELOW 12,000 FEET WITH NO
       SIGNIFICANT WEATHER AND/OR OBSTRUCTIONS TO VISIBILITY.

  * THESE STATIONS DO NOT REPORT WEATHER SUCH AS RAIN...SNOW OR FOG.

NEZ001>004-019>022-054>056-140500-
NEBRASKA PANHANDLE

CITY           SKY/WX    TMP DP  RH WIND       PRES   REMARKS
SCOTTSBLUFF    PTCLDY    36  29  75 W13       30.02R WCI  27
ALLIANCE       PTCLDY    35  30  82 NW14      29.95R WCI  26
CHADRON        CLOUDY    37  32  82 W23G31    29.97R WCI  26
SIDNEY         CLEAR     35  31  85 NW28G36   30.00S WCI  22
$$

NEZ057>060-069>072-079>082-140500-
SOUTHWEST NEBRASKA

CITY           SKY/WX    TMP DP  RH WIND       PRES   REMARKS
NORTH PLATTE   MOCLDY    29  24  82 SW9       29.99R WCI  20
IMPERIAL       CLOUDY    29  26  89 W7        30.01R WCI  22
MCCOOK         CLOUDY    26  21  81 S5        30.00R WCI  20
$$

NEZ005>010-023>029-035>040-094-140500-
NORTH CENTRAL NEBRASKA

CITY           SKY/WX    TMP DP  RH WIND       PRES   REMARKS
VALENTINE      CLOUDY    31  27  85 SW10      29.79F WCI  22
BROKEN BOW     CLOUDY    21  11  65 S10       29.98R WCI  10
ORD            CLOUDY    19   9  65 S9G22     29.99F WCI   8
$$

NEZ041-046>049-061>064-073>077-083>087-140500-
SOUTH CENTRAL NEBRASKA

CITY           SKY/WX    TMP DP  RH WIND       PRES   REMARKS
GRAND ISLAND   CLOUDY    18   8  65 SE12      30.06F WCI   5
HASTINGS       CLOUDY    19   7  59 SE10      30.04S WCI   7
KEARNEY *      CLOUDY    19  10  68 SE9       30.02R WCI   9
$$

NEZ011>018-030>034-042>045-140500-
NORTHEAST NEBRASKA

CITY           SKY/WX    TMP DP  RH WIND       PRES   REMARKS
NORFOLK        CLOUDY    17   7  64 SE18      30.06F WCI   1
COLUMBUS *     PTCLDY    18   1  49 SE12G17   30.10F WCI   5
TEKAMAH        CLOUDY    18   6  59 SE18      30.21F WCI   2
$$

NEZ050>053-065>068-078-088>093-140500-
SOUTHEAST NEBRASKA

CITY           SKY/WX    TMP DP  RH WIND       PRES   REMARKS
LINCOLN        CLOUDY    20   6  55 SE15      30.17F WCI   6
OMAHA EPPLEY   CLOUDY    19   3  49 SE17      30.22F WCI   4
FALLS CITY     CLOUDY    20   3  48 SE13      30.22F WCI   7
$$

NEZ044-045-051>053-067-140500-
OMAHA AREA

CITY           SKY/WX    TMP DP  RH WIND       PRES   REMARKS
OMAHA EPPLEY   CLOUDY    19   3  49 SE17      30.22F WCI   4
OFFUTT AFB     CLOUDY    19   3  49 E15       30.20F WCI   5
$$




USA.gov is the U.S. government's official web portal to all federal, state and local government web resources and services.